Probability
0 0 0 0 0 0 0 0 0 0 0 0 0 0 0 0 0 0 0 0 0 0 0 0 0 0 0 0 0 0 0 0 0 0 0 0 0 0 0 0 0 0 0 0 0 0 0 0 0
0 0 0 0 0 0 0 0 0 0 0 0 0 0 0 0 0 0 0 0 0 0 0 0 0 0 0 0 0 0 0 0 0 0 0 0 0 0 0 0 0 0 0 0 0 0 0 0 0
0 0 0 0 0 0 0 0 0 0 0 0 0 0 0 0 0 0 0 0 0 0 0 0 0 0 0 0 0 0 0 0 0 0 0 0 0 0 0 0 0 0 0 0 0 0 0 0 0
0 0 0 0 0 0 0 0 0 0 0 0 0 0 0 0 0 0 0 0 0 0 0 0 0 0 0 0 0 0 0 0 0 0 0 0 0 0 0 0 0 0 0 0 0 0 0 0 0
0 0 0 0 0 0 0 0 0 0 0 0 0 0 0 0 0 0 0 0 0 0 0 0 0 0 0 0 0 0 0 0 0 0 0 0 0 0 0 0 0 0 0 0 0 0 0 0 0
0 0 0 0 0 0 0 0 0 0 0 0 0 0 0 0 0 0 0 0 0 0 0 0 0 0 0 0 0 0 0 0 0 0 0 0 0 0 0 0 0 0 0 0 0 0 0 0 0
0 0 0 0 0 0 0 0 0 0 0 0 0 0 0 0 0 0 0 0 0 0 0 0 0 0 0 0 0 0 0 0 0 0 0 0 0 0 0 0 0 0 0 0 0 0 0 0 0
0 0 0 0 0 0 0 0 0 0 0 0 0 0 0 0 0 0 0 0 0 0 0 0 0 0 0 0 0 0 0 0 0 0 0 0 0 0 0 0 0 0 0 0 0 0 0 0 0
0 0 0 0 0 0 0 0 0 0 0 0 0 0 0 0 0 0 0 0 0 0 0 0 0 0 0 0 0 0 0 0 0 0 0 0 0 0 0 0 0 0 0 0 0 0 0 0 0
0 0 0 0 0 0 0 0 0 0 0 0 0 0 0 0 0 0 0 0 0 0 0 0 0 0 0 0 0 0 0 0 0 0 0 0 0 0 0 0 0 0 0 0 0 0 0 0 0
0 0 0 0 0 0 0 0 0 0 0 0 0 0 0 0 0 0 0 0 0 0 0 0 0 0 0 0 0 0 0 0 0 0 0 0 0 0 0 0 0 0 0 0 0 0 0 0 0
0 0 0 0 0 0 0 0 0 0 0 0 0 0 0 0 0 0 0 0 0 0 0 0 0 0 0 0 0 0 0 0 0 0 0 0 0 0 0 0 0 0 0 0 0 0 0 0 0
0 0 0 0 0 0 0 0 0 0 0 0 0 0 0 0 0 0 0 0 0 0 0 0 0 0 0 0 0 0 0 0 0 0 0 0 0 0 0 0 0 0 0 0 0 0 0 0 0
0 0 0 0 0 0 0 0 0 0 0 0 0 0 0 0 0 0 0 0 0 0 0 0 0 0 0 0 0 0 0 0 0 0 0 0 0 0 0 0 0 0 0 0 0 0 0 0 0
0 0 0 0 0 0 0 0 0 0 0 0 0 0 0 0 0 0 0 0 0 0 0 0 0 0 0 0 0 0 0 0 0 0 0 0 0 0 0 0 0 0 0 0 0 0 0 0 0
0 0 0 0 0 0 0 0 0 0 0 0 0 0 0 0 0 0 0 0 0 0 0 0 0 0 0 0 0 0 0 0 0 0 0 0 0 0 0 0 0 0 0 0 0 0 0 0 0
0 0 0 0 0 0 0 0 0 0 0 0 0 0 0 0 0 0 0 0 0 0 0 0 0 0 0 0 0 0 0 0 0 0 0 0 0 0 0 0 0 0 0 0 0 0 0 0 0
0 0 0 0 0 0 0 0 0 0 0 0 0 0 0 0 0 0 0 0 0 0 0 0 0 0 0 0 0 0 0 0 0 0 0 0 0 0 0 0 0 0 0 0 0 0 0 0 0
0 0 0 0 0 0 0 0 0 0 0 0 0 0 0 0 0 0 0 0 0 0 0 0 0 0 0 0 0 0 0 0 0 0 0 0 0 0 0 0 0 0 0 0 0 0 0 0 0
0 0 0 0 0 0 0 0 0 0 0 0 0 0 0 0 0 0 0 0 0 0 0 0 0 0 0 0 0 0 0 0 0 0 0 0 0 0 0 0 0 0 0 0 0 0 0 0 0
0 0 0 0 0 0 0 0 0 0 0 0 0 0 0 0 0 0 0 0 0 0 0 0 0 0 0 0 0 0 0 0 0 0 0 0 0 0 0 0 0 0 0 0 0 0 0 0 0
0 0 0 0 0 0 0 0 0 0 0 0 0 0 0 0 0 0 0 0 0 0 0 0 0 0 0 0 0 0 0 0 0 0 0 0 0 0 0 0 0 0 0 0 0 0 0 0 0
0 0 0 0 0 0 0 0 0 0 0 0 0 0 0 0 0 0 0 0 0 0 0 0 0 0 0 0 0 0 0 0 0 0 0 0 0 0 0 0 0 0 0 0 0 0 0 0 0
0 0 0 0 0 0 0 0 0 0 0 0 0 0 0 0 0 0 0 0 0 0 0 0 0 0 0 0 0 0 0 0 0 0 0 0 0 0 0 0 0 0 0 0 0 0 0 0 0
0 0 0 0 0 0 0 0 0 0 0 0 0 0 0 0 0 0 0 0 0 0 0 0 0 0 0 0 0 0 0 0 0 0 0 0 0 0 0 0 0 0 0 0 0 0 0 0 0
0 0 0 0 0 0 0 0 0 0 0 0 0 0 0 0 0 0 0 0 0 0 0 0 0 0 0 0 0 0 0 0 0 0 0 0 0 0 0 0 0 0 0 0 0 0 0 0 0
0 0 0 0 0 0 0 0 0 0 0 0 0 0 0 0 0 0 0 0 0 0 0 0 0 0 0 0 0 0 0 0 0 0 0 0 0 0 0 0 0 0 0 0 0 0 0 0 0
0 0 0 0 0 0 0 0 0 0 0 0 0 0 0 0 0 0 0 0 0 0 0 0 0 0 0 0 0 0 0 0 0 0 0 0 0 0 0 0 0 0 0 0 0 0 0 0 0
0 0 0 0 0 0 0 0 0 0 0 0 0 0 0 0 0 0 0 0 0 0 0 0 0 0 0 0 0 0 0 0 0 0 0 0 0 0 0 0 0 0 0 0 0 0 0 0 0
0 0 0 0 0 0 0 0 0 0 0 0 0 0 0 0 0 0 0 0 0 0 0 0 0 0 0 0 0 0 0 0 0 0 0 0 0 0 0 0 0 0 0 0 0 0 0 0 0
Height
5839 5839 5841 5843 5845 5846 5847 5849 5849 5851 5852 5854 5855 5856 5858 5859 5862 5865 5865 5865 5867 5869 5870 5871 5872 5873 5874 5875 5876 5876 5877 5877 5877 5877 5877 5877 5877 5877 5877 5877 5876 5876 5875 5875 5874 5873 5873 5872 5871
5838 5838 5840 5841 5842 5844 5846 5846 5847 5849 5850 5851 5853 5854 5855 5856 5858 5860 5861 5863 5864 5866 5867 5869 5870 5871 5872 5872 5873 5874 5874 5875 5875 5875 5875 5875 5875 5875 5875 5874 5874 5873 5873 5872 5871 5871 5870 5869 5868
5836 5837 5838 5839 5840 5842 5843 5844 5845 5846 5848 5849 5850 5851 5853 5854 5856 5857 5858 5860 5862 5864 5865 5866 5867 5868 5869 5870 5871 5872 5872 5873 5873 5873 5873 5873 5873 5872 5872 5872 5871 5871 5870 5869 5869 5868 5867 5866 5865
5834 5835 5837 5838 5839 5840 5840 5841 5842 5844 5846 5847 5848 5849 5851 5852 5854 5855 5856 5858 5860 5861 5862 5864 5865 5866 5867 5868 5869 5869 5870 5870 5870 5870 5870 5870 5870 5870 5869 5869 5868 5868 5867 5866 5866 5865 5864 5863 5862
5832 5833 5835 5836 5836 5837 5838 5839 5840 5842 5843 5845 5846 5847 5849 5850 5851 5853 5854 5856 5857 5859 5860 5862 5863 5864 5865 5865 5866 5867 5867 5867 5868 5868 5868 5868 5867 5867 5866 5866 5865 5865 5864 5863 5862 5862 5861 5859 5858
5830 5831 5833 5833 5834 5835 5836 5837 5838 5840 5841 5842 5844 5845 5847 5848 5849 5851 5852 5854 5855 5857 5858 5859 5860 5861 5862 5863 5864 5864 5864 5865 5865 5865 5865 5865 5864 5864 5863 5863 5862 5861 5860 5860 5859 5858 5857 5856 5854
5827 5828 5829 5830 5831 5832 5834 5835 5836 5838 5839 5840 5841 5843 5845 5846 5847 5849 5850 5852 5853 5855 5856 5857 5858 5859 5860 5860 5861 5861 5862 5862 5862 5862 5862 5861 5861 5861 5860 5859 5858 5858 5857 5856 5855 5854 5853 5852 5850
5823 5826 5826 5827 5828 5830 5831 5832 5834 5835 5837 5838 5839 5841 5843 5844 5845 5847 5848 5850 5851 5852 5854 5855 5856 5856 5857 5858 5858 5858 5858 5859 5859 5858 5858 5858 5858 5857 5856 5855 5855 5854 5853 5852 5851 5850 5849 5847 5846
5818 5822 5823 5824 5825 5827 5828 5830 5831 5833 5834 5836 5837 5838 5841 5842 5843 5845 5846 5847 5849 5850 5851 5852 5853 5853 5854 5854 5855 5855 5855 5855 5855 5855 5855 5854 5854 5853 5852 5852 5851 5850 5849 5847 5846 5845 5844 5843 5841
5813 5817 5819 5819 5821 5822 5824 5826 5828 5830 5831 5833 5834 5836 5837 5839 5841 5842 5843 5845 5846 5847 5848 5849 5850 5850 5851 5851 5851 5851 5852 5852 5852 5851 5851 5850 5850 5849 5848 5847 5846 5845 5844 5843 5842 5841 5839 5838 5837
5807 5811 5813 5814 5816 5818 5821 5823 5825 5826 5828 5830 5831 5833 5834 5836 5838 5839 5841 5842 5843 5844 5845 5846 5847 5847 5847 5848 5848 5848 5848 5848 5848 5847 5847 5846 5845 5845 5844 5843 5842 5841 5839 5838 5837 5836 5835 5833 5832
5801 5804 5806 5808 5811 5813 5816 5818 5820 5823 5825 5826 5827 5829 5832 5833 5835 5836 5837 5838 5840 5840 5841 5842 5843 5843 5843 5844 5844 5844 5844 5843 5843 5843 5842 5841 5841 5840 5839 5838 5837 5836 5834 5833 5832 5831 5829 5828 5826
5793 5797 5799 5802 5805 5808 5811 5813 5816 5818 5820 5821 5823 5825 5828 5829 5830 5832 5833 5834 5836 5837 5837 5838 5839 5839 5839 5839 5839 5839 5839 5839 5838 5838 5837 5836 5836 5835 5834 5833 5832 5830 5829 5828 5827 5825 5824 5822 5821
5785 5789 5792 5795 5798 5802 5805 5808 5810 5814 5815 5817 5819 5821 5823 5825 5826 5827 5829 5830 5831 5832 5833 5834 5834 5835 5835 5835 5835 5835 5834 5834 5833 5833 5832 5831 5830 5829 5828 5827 5826 5825 5823 5822 5821 5820 5818 5817 5815
5776 5780 5784 5788 5791 5795 5797 5801 5805 5808 5809 5811 5813 5816 5818 5820 5821 5823 5824 5825 5826 5828 5828 5829 5829 5830 5830 5830 5830 5830 5829 5829 5828 5827 5826 5825 5824 5823 5822 5821 5820 5819 5817 5816 5814 5813 5812 5810 5808
5767 5771 5776 5781 5784 5787 5790 5795 5799 5800 5802 5805 5808 5810 5812 5814 5816 5817 5819 5820 5821 5822 5823 5824 5824 5824 5825 5825 5824 5824 5823 5823 5822 5821 5820 5819 5818 5817 5816 5815 5813 5812 5811 5809 5808 5807 5805 5803 5802
5758 5762 5768 5773 5775 5778 5781 5787 5791 5791 5794 5798 5801 5803 5806 5808 5810 5812 5813 5814 5815 5816 5818 5818 5818 5818 5818 5818 5818 5818 5817 5817 5816 5815 5814 5812 5811 5810 5809 5808 5807 5805 5804 5803 5801 5800 5798 5796 5795
5751 5755 5759 5763 5766 5768 5771 5777 5782 5783 5786 5791 5794 5796 5799 5802 5804 5805 5806 5808 5809 5810 5811 5812 5812 5812 5812 5812 5812 5811 5811 5810 5809 5808 5807 5805 5804 5803 5802 5801 5800 5799 5797 5796 5794 5793 5791 5789 5787
5741 5744 5748 5753 5755 5758 5761 5766 5772 5775 5778 5782 5786 5789 5792 5794 5796 5797 5799 5801 5802 5803 5804 5805 5805 5805 5805 5805 5805 5804 5803 5803 5802 5801 5799 5798 5797 5796 5795 5794 5793 5791 5790 5788 5787 5785 5784 5782 5779
5729 5733 5738 5743 5745 5748 5751 5756 5761 5766 5769 5773 5777 5780 5783 5786 5788 5790 5791 5793 5794 5795 5796 5797 5798 5798 5798 5797 5797 5796 5796 5795 5794 5793 5792 5791 5790 5789 5788 5786 5785 5784 5783 5781 5779 5778 5776 5774 5771
5719 5725 5730 5733 5736 5737 5740 5745 5751 5757 5760 5764 5768 5771 5775 5777 5779 5781 5783 5785 5786 5787 5788 5788 5789 5789 5789 5789 5789 5788 5788 5787 5786 5785 5784 5783 5782 5781 5780 5779 5778 5776 5775 5773 5772 5770 5768 5765 5763
5710 5717 5720 5722 5724 5727 5731 5732 5742 5746 5751 5755 5759 5762 5765 5768 5770 5772 5774 5776 5778 5778 5778 5779 5780 5780 5780 5780 5780 5780 5780 5779 5778 5777 5776 5776 5775 5773 5772 5771 5770 5769 5767 5765 5763 5761 5759 5757 5754
5702 5707 5709 5712 5713 5716 5721 5721 5730 5737 5742 5746 5750 5753 5755 5758 5760 5762 5764 5766 5768 5769 5769 5770 5770 5771 5771 5772 5772 5771 5771 5771 5770 5769 5768 5768 5767 5765 5764 5763 5762 5760 5759 5757 5755 5753 5751 5748 5746
5692 5696 5698 5700 5701 5704 5713 5712 5716 5727 5733 5738 5741 5743 5745 5748 5750 5752 5754 5756 5758 5759 5760 5760 5761 5762 5762 5762 5762 5763 5762 5762 5761 5761 5760 5759 5758 5757 5756 5755 5753 5752 5750 5748 5746 5744 5742 5739 5736
5680 5684 5687 5688 5689 5695 5704 5703 5709 5718 5724 5728 5731 5733 5735 5737 5740 5742 5744 5746 5748 5749 5750 5751 5751 5752 5753 5753 5753 5753 5753 5753 5753 5752 5752 5751 5750 5749 5748 5746 5745 5743 5742 5740 5738 5735 5733 5730 5727
5670 5674 5678 5681 5684 5689 5692 5693 5703 5708 5713 5717 5720 5723 5725 5727 5730 5732 5734 5736 5738 5739 5740 5741 5742 5743 5743 5744 5744 5744 5744 5744 5744 5744 5743 5742 5741 5740 5739 5738 5736 5735 5733 5731 5729 5726 5723 5720 5717
5659 5663 5671 5673 5675 5678 5680 5685 5693 5698 5702 5706 5710 5713 5715 5717 5719 5721 5723 5725 5727 5729 5730 5731 5732 5733 5733 5734 5734 5735 5735 5735 5735 5735 5734 5734 5733 5731 5730 5729 5727 5726 5724 5722 5719 5717 5714 5711 5707
5649 5655 5658 5660 5663 5666 5671 5677 5684 5689 5693 5697 5700 5703 5705 5707 5709 5711 5713 5715 5717 5719 5720 5721 5722 5723 5724 5724 5725 5725 5726 5726 5726 5725 5725 5725 5724 5722 5721 5720 5719 5717 5715 5713 5710 5707 5704 5701 5697
5638 5642 5645 5650 5654 5658 5662 5671 5677 5680 5683 5687 5690 5693 5695 5697 5699 5701 5703 5705 5707 5708 5710 5711 5712 5713 5714 5715 5716 5716 5716 5717 5716 5716 5716 5715 5715 5714 5712 5711 5709 5708 5705 5703 5700 5697 5694 5691 5687
5626 5631 5636 5641 5646 5650 5654 5663 5668 5670 5674 5677 5680 5683 5686 5688 5690 5692 5694 5695 5697 5699 5700 5701 5703 5704 5705 5705 5706 5707 5707 5707 5707 5707 5707 5706 5706 5704 5703 5702 5700 5698 5696 5693 5690 5687 5684 5680 5677
Wind_Speed
10 11 12 14 15 15 15 15 15 16 16 16 15 16 17 16 15 15 15 16 15 14 14 14 14 14 13 13 13 12 12 12 12 12 12 12 13 13 14 15 15 16 16 17 17 17 17 17 17
10 11 12 13 14 14 15 15 16 15 16 15 15 16 17 16 14 15 15 16 16 15 15 14 14 13 13 13 12 12 12 12 12 12 13 13 13 14 15 15 16 16 16 17 17 17 17 18 18
11 12 13 13 13 14 15 16 16 16 15 15 15 16 15 14 13 14 14 15 15 14 14 14 13 13 12 12 12 12 12 12 13 13 13 13 14 14 15 15 16 16 16 17 17 17 18 18 19
13 13 13 13 14 15 15 15 15 15 15 15 15 15 14 13 12 13 13 13 14 13 13 13 13 12 12 12 12 12 13 13 13 13 13 13 14 14 15 15 16 16 17 18 18 19 19 20 20
15 14 14 14 14 15 16 15 14 14 15 15 14 13 12 12 12 12 12 12 13 13 13 12 12 12 12 11 12 12 12 13 13 13 13 14 14 15 16 16 17 17 18 19 19 20 21 21 22
16 16 15 15 15 16 16 15 14 14 15 15 14 13 11 11 11 11 11 11 11 11 12 12 12 12 12 12 12 13 13 13 14 14 14 15 15 16 17 17 18 19 19 20 21 21 22 22 23
19 18 17 17 17 17 17 16 15 15 15 15 15 14 12 12 12 11 11 11 11 11 11 11 12 12 12 13 14 14 14 14 15 15 16 16 17 17 18 19 19 20 21 21 22 22 23 23 24
23 21 20 19 18 18 18 17 17 17 16 16 16 15 12 12 13 12 12 12 12 12 12 12 13 13 14 14 15 15 15 15 16 17 17 18 18 19 20 20 21 21 22 23 23 23 24 25 25
26 24 22 21 21 20 19 19 19 18 18 17 17 15 14 14 14 14 13 13 13 13 13 14 14 14 15 15 16 16 16 16 17 18 18 19 20 20 21 21 22 22 23 24 24 25 25 26 26
29 26 25 26 25 23 22 20 20 21 20 20 19 17 16 16 15 15 15 14 14 15 15 15 15 15 16 16 16 17 17 18 18 19 20 20 21 22 22 22 23 24 24 25 25 25 26 26 27
32 29 29 29 27 26 24 23 23 22 22 22 21 20 19 18 17 17 17 16 16 16 17 17 17 17 17 18 18 18 19 19 20 21 21 22 22 23 23 24 24 25 25 26 26 27 27 28 28
36 34 33 33 31 29 28 27 26 25 24 25 24 22 21 20 20 19 19 19 19 19 19 19 19 19 19 20 20 20 21 21 22 22 23 24 24 25 25 26 26 26 27 27 28 28 28 29 29
40 37 37 36 35 33 31 30 29 27 27 26 25 24 23 23 22 22 22 22 21 21 21 21 21 21 21 22 22 22 23 23 24 24 25 26 26 27 27 27 27 28 28 28 29 29 29 30 31
42 41 40 39 38 36 35 33 32 30 30 29 28 26 25 25 25 24 24 24 24 23 24 24 23 23 23 24 24 24 25 25 26 26 27 27 28 28 28 28 28 29 29 29 30 30 31 31 32
45 44 43 42 40 39 39 37 34 33 33 32 31 30 28 27 27 26 26 26 26 26 26 25 25 25 26 26 26 26 27 27 28 28 29 29 30 30 30 30 30 30 31 31 31 32 32 33 33
47 47 46 43 43 42 43 39 36 37 37 35 34 33 32 31 30 29 29 29 29 28 28 28 28 28 28 28 29 29 29 29 30 30 31 31 31 31 31 31 31 31 32 32 33 33 34 34 34
49 48 47 45 45 44 45 42 39 40 40 38 37 36 35 34 33 32 32 32 31 31 30 30 30 31 31 31 31 31 31 31 32 32 32 32 32 32 32 32 32 33 33 34 34 34 35 35 35
47 47 46 46 46 47 48 45 43 43 43 41 40 39 38 36 35 35 35 34 34 34 33 33 33 33 34 34 34 34 34 34 34 33 33 33 33 33 33 33 34 34 34 34 35 35 35 36 36
46 47 47 47 48 50 50 48 46 46 46 44 42 41 40 38 38 38 38 37 36 36 36 35 35 35 36 36 36 36 36 36 35 35 35 34 34 33 34 34 34 34 35 35 35 36 36 37 37
48 48 47 47 48 50 50 50 48 47 47 46 44 43 42 41 41 41 40 39 38 38 38 38 38 38 38 38 38 38 38 37 36 36 35 35 34 34 35 35 35 35 35 35 36 37 37 37 37
48 48 47 46 47 50 52 52 50 49 48 47 46 45 44 43 43 43 42 41 41 40 41 41 41 40 40 40 40 39 38 38 37 36 36 35 35 35 35 35 35 35 36 36 37 37 37 38 38
49 46 46 46 48 49 51 55 51 50 48 48 47 45 45 45 45 44 44 43 42 42 43 43 42 42 41 41 40 39 39 38 37 37 36 35 35 35 35 35 35 35 36 37 37 38 38 39 39
47 45 46 46 48 50 50 55 53 50 48 47 46 45 45 45 45 44 44 43 42 42 43 43 43 42 41 41 40 40 39 38 38 37 36 36 35 35 36 36 36 36 37 37 38 39 39 40 40
46 46 47 48 50 54 50 52 55 48 46 43 43 43 44 45 44 44 44 43 43 42 42 43 42 42 41 41 40 40 39 39 38 37 36 36 36 36 36 36 36 37 37 38 39 40 40 41 41
49 48 48 50 52 54 49 51 54 48 44 42 42 43 43 44 44 44 44 43 43 42 42 42 42 42 41 41 40 40 39 39 38 37 37 37 36 36 37 37 37 37 38 39 39 40 41 42 42
49 50 50 51 51 50 48 51 49 47 44 42 41 42 42 43 44 43 43 43 42 42 42 42 42 41 41 41 40 40 39 39 38 37 37 37 37 37 37 37 37 38 38 39 40 41 42 43 43
50 50 47 48 49 50 51 50 47 44 42 40 39 39 40 41 42 42 42 42 41 41 41 40 40 40 40 40 40 39 39 39 38 38 38 37 37 37 37 38 38 38 39 40 41 42 43 44 44
50 48 48 49 50 51 51 49 47 43 41 39 37 37 38 39 40 40 41 41 41 40 40 40 39 39 38 39 39 39 39 38 38 38 37 37 37 37 38 38 38 39 40 40 41 42 44 44 44
51 52 51 51 51 50 50 48 44 42 40 38 36 36 36 36 37 38 38 38 39 39 39 39 38 38 38 38 38 38 38 38 38 38 37 37 37 37 37 38 39 40 40 41 42 43 44 44 45
48 49 50 51 51 50 49 47 42 42 40 37 35 34 34 34 35 35 36 36 37 37 37 37 37 37 37 37 37 37 37 37 37 37 37 37 37 37 38 39 39 40 41 42 43 44 44 45 46
Wind_Direction
217 213 211 211 213 212 214 219 223 224 224 227 227 230 234 236 239 241 235 234 236 238 241 244 248 250 254 257 261 264 268 273 278 282 285 287 289 291 293 294 295 296 298 298 299 299 298 297 296
219 217 216 215 215 213 216 222 226 226 228 228 229 231 234 235 236 238 236 235 236 239 242 245 248 251 253 256 260 263 268 274 278 282 286 288 289 291 293 294 294 295 295 296 296 296 296 296 295
222 220 218 216 215 215 220 225 226 229 229 230 229 231 233 233 234 237 236 234 235 238 241 244 247 250 252 256 260 265 270 274 278 282 285 287 289 291 292 293 294 294 295 295 295 295 295 295 294
225 222 219 217 215 217 223 227 227 227 226 227 228 228 229 230 230 233 235 234 234 236 240 243 247 250 254 258 263 268 272 276 279 282 285 287 289 291 292 293 294 294 294 295 294 294 294 294 293
226 223 221 218 217 219 223 227 226 224 222 223 224 224 224 227 227 230 232 233 234 236 240 244 248 253 258 262 268 272 275 279 282 283 286 288 290 291 292 292 293 293 294 294 293 293 293 292 292
228 226 224 220 220 221 223 225 223 223 221 221 223 223 219 223 225 226 228 229 231 234 239 244 250 256 259 264 269 273 277 280 282 284 286 288 290 292 292 293 293 293 293 293 293 292 291 291 291
230 228 225 222 222 222 222 222 221 222 223 220 222 224 217 221 223 224 227 229 232 236 241 246 253 258 262 267 271 275 278 280 282 284 286 287 289 291 292 293 293 293 293 293 292 292 291 291 291
232 230 227 226 225 224 223 222 222 223 224 223 224 225 218 223 226 227 231 234 238 241 245 252 258 262 267 270 273 275 277 280 282 284 286 287 289 291 291 292 292 292 292 292 292 292 292 291 291
232 230 228 228 228 227 226 225 225 226 228 228 229 229 225 228 232 234 237 241 245 249 252 258 263 266 269 272 274 276 277 280 283 286 287 288 289 290 290 290 291 292 293 292 291 291 292 292 291
232 231 229 230 229 229 229 228 228 229 230 232 233 234 233 235 237 240 243 246 250 255 258 262 266 268 271 273 276 277 279 281 284 286 287 288 289 290 290 290 291 292 292 291 291 291 292 292 292
232 231 231 232 232 232 232 232 232 233 234 236 237 237 239 240 243 245 248 252 256 260 263 266 269 271 273 275 277 279 280 282 284 286 288 289 289 290 290 290 290 291 291 290 290 291 292 292 292
232 231 232 233 233 233 233 234 234 235 237 239 240 240 242 245 247 250 253 256 259 263 266 269 271 273 275 276 277 279 281 283 284 285 287 288 289 289 289 290 290 290 290 290 291 291 292 292 292
233 232 233 234 234 234 235 235 237 238 240 242 243 244 244 247 250 253 256 259 262 265 268 270 272 274 276 278 279 280 282 284 285 285 286 288 288 289 289 289 289 289 289 289 290 291 291 292 293
234 234 234 235 235 236 236 236 237 239 242 244 245 246 247 248 251 254 257 260 263 265 268 271 272 274 277 279 280 281 283 285 286 286 287 287 288 288 288 287 287 287 288 289 289 290 290 291 292
235 235 235 236 237 238 239 238 239 240 242 244 246 247 249 250 252 255 257 260 263 265 268 270 273 275 277 279 280 281 283 284 285 286 287 287 287 287 287 287 286 286 287 288 289 289 290 291 292
236 236 237 237 239 239 241 239 240 241 242 243 246 248 250 252 254 256 258 261 263 266 268 270 273 275 277 278 280 282 283 284 285 286 286 286 286 286 285 285 285 286 287 288 289 290 291 292 293
237 238 238 239 240 241 242 241 240 242 243 243 246 248 250 252 255 257 259 262 264 266 268 270 273 275 277 279 280 281 282 283 284 285 285 285 285 284 283 283 284 285 286 287 289 290 291 292 293
240 241 241 241 241 243 243 243 242 244 245 245 246 248 251 253 255 258 260 262 265 267 269 271 273 275 277 278 280 281 281 282 282 283 284 285 285 284 282 282 283 284 285 287 289 290 291 293 294
242 242 242 242 243 243 244 244 243 245 246 247 248 249 251 253 255 258 260 262 265 267 269 270 272 275 276 278 279 279 280 280 281 282 283 283 283 282 281 282 283 284 285 287 289 291 292 293 294
240 242 243 243 245 246 246 246 245 245 247 249 249 250 252 254 256 259 260 262 265 266 268 270 272 274 275 277 277 278 278 279 280 281 281 281 281 281 281 282 284 285 286 287 289 291 292 293 294
240 242 244 245 246 248 248 247 247 247 248 249 250 252 254 256 258 259 261 263 265 267 269 270 272 273 274 275 276 276 277 278 278 279 279 279 280 281 281 282 284 285 287 288 289 291 293 293 295
241 242 244 246 247 247 249 250 245 247 249 250 252 253 255 256 258 260 262 264 265 266 267 269 271 272 273 274 275 275 276 276 276 277 278 279 279 280 281 282 283 285 287 288 290 291 292 294 295
242 242 244 246 247 248 248 252 248 248 249 252 254 255 256 257 259 261 262 264 264 265 266 268 269 270 271 272 273 274 274 275 275 276 277 278 278 279 280 282 284 285 286 288 290 291 293 295 296
241 242 244 245 247 248 247 252 253 251 252 253 255 256 257 258 259 261 262 263 264 265 266 267 268 269 269 271 271 272 273 273 273 274 275 277 278 279 280 281 283 284 286 288 290 291 293 295 296
238 239 241 244 246 249 250 252 254 255 255 255 255 256 258 259 260 261 263 264 264 265 265 266 267 267 268 269 270 270 271 272 272 273 274 275 276 278 279 281 282 284 285 288 290 291 293 295 296
240 241 242 246 250 254 254 254 254 257 258 257 257 257 258 260 261 262 262 263 264 264 264 265 266 266 267 267 268 269 270 271 271 273 273 274 275 277 278 280 281 283 285 288 290 292 294 295 297
240 242 245 248 250 253 254 256 254 255 258 258 258 258 258 259 260 261 262 262 262 263 264 264 265 265 265 266 266 267 269 270 271 272 273 274 275 276 277 279 281 283 287 289 290 292 294 296 298
239 242 242 244 247 250 252 254 256 258 259 259 259 259 259 259 260 260 261 262 262 263 263 263 264 264 264 265 266 267 268 269 270 272 273 273 274 275 277 280 282 284 287 289 291 293 295 296 298
237 238 240 242 245 248 252 254 256 259 260 261 260 259 259 259 260 260 261 261 261 262 262 262 263 263 263 264 265 266 267 268 270 272 271 272 273 276 278 280 282 285 287 289 292 294 296 297 298
238 240 242 243 245 248 252 252 254 258 260 261 262 261 259 259 259 259 260 260 261 261 262 262 262 262 262 262 263 264 266 267 268 269 270 271 274 276 279 280 283 286 288 290 292 294 296 298 299